This is the latest recevied weather packets stored in our database for station/object KF6ILA. If no packets are shown the sender has not sent any weather packets the latest 10 day(s).
| Time | Temp. | Humidity | Pressure | Rain* | Wind** | Luminosity | Snow |
|---|---|---|---|---|---|---|---|
| 1787755951 | 29.44° C | 29% | 1018.1 hPa | 0 mm | - | 287 W/m² | - |
| 1787755654 | 29.44° C | 29% | 1018 hPa | 0 mm | - | 267 W/m² | - |
| 1787755357 | 29.44° C | 28% | 1017.9 hPa | 0 mm | - | 250 W/m² | - |
| 1787754466 | 28.33° C | 29% | 1017.9 hPa | 0 mm | - | 195 W/m² | - |
| 1787754169 | 28.33° C | 29% | 1017.7 hPa | 0 mm | - | 176 W/m² | - |
| 1787753872 | 28.33° C | 29% | 1017.6 hPa | 0 mm | - | 155 W/m² | - |
| 1787753575 | 28.33° C | 29% | 1017.6 hPa | 0 mm | - | 139 W/m² | - |
| 1787753278 | 27.78° C | 29% | 1017.5 hPa | 0 mm | - | 116 W/m² | - |
| 1787752981 | 27.78° C | 29% | 1017.4 hPa | 0 mm | - | 97 W/m² | - |
| 1787752684 | 27.78° C | 28% | 1017.4 hPa | 0 mm | - | 77 W/m² | - |
| 1787752387 | 27.78° C | 28% | 1017.4 hPa | 0 mm | - | 60 W/m² | - |
| 1787751793 | 27.22° C | 29% | 1017.2 hPa | 0 mm | - | 33 W/m² | - |
| 1787751496 | 27.22° C | 28% | 1017.1 hPa | 0 mm | - | 23 W/m² | - |
| 1787751199 | 27.22° C | 29% | 1017.1 hPa | 0 mm | - | 14 W/m² | - |
| 1787750995 | 27.22° C | 29% | 1017 hPa | 0 mm | - | 11 W/m² | - |
| 1787750902 | 27.22° C | 29% | 1017 hPa | 0 mm | - | 11 W/m² | - |
| 1787749714 | 26.67° C | 30% | 1016.9 hPa | 0 mm | - | 0 W/m² | - |
| 1787749417 | 26.67° C | 30% | 1016.9 hPa | 0 mm | - | 0 W/m² | - |
| 1787749120 | 27.22° C | 31% | 1016.9 hPa | 0 mm | - | 0 W/m² | - |
| 1787748823 | 27.22° C | 31% | 1016.7 hPa | 0 mm | - | 0 W/m² | - |
| 1787748526 | 27.22° C | 31% | 1016.8 hPa | 0 mm | - | 0 W/m² | - |
| 1787748229 | 27.22° C | 31% | 1016.8 hPa | 0 mm | - | 0 W/m² | - |
| 1787747932 | 27.22° C | 32% | 1016.7 hPa | 0 mm | - | 0 W/m² | - |
| 1787747041 | 26.67° C | 34% | 1016.9 hPa | 0 mm | - | 0 W/m² | - |
| 1787746744 | 26.67° C | 35% | 1016.9 hPa | 0 mm | - | 0 W/m² | - |
* Rain latest hour (hover to see other rain measurements)
** Current wind speed in m/s (hover to see current wind gust speed)